TimeEDT,TemperatureF,Dew PointF,Humidity,Sea Level PressureIn,VisibilityMPH,Wind Direction,Wind SpeedMPH,Gust SpeedMPH,PrecipitationIn,Events,Conditions,WindDirDegrees,DateUTC
12:53 AM,66.9,54.0,63,29.86,10.0,West,20.7,26.5,N/A,,Clear,270,2013-09-04 04:53:00
1:53 AM,66.9,57.0,70,29.90,10.0,West,20.7,26.5,N/A,,Overcast,280,2013-09-04 05:53:00
2:00 AM,66.2,57.2,73,29.92,10.0,NNW,18.4,31.1,N/A,,Overcast,340,2013-09-04 06:00:00
2:14 AM,64.4,57.2,77,29.93,10.0,NW,13.8,-,N/A,,Overcast,320,2013-09-04 06:14:00
2:53 AM,63.0,55.9,78,29.94,10.0,NE,13.8,20.7,N/A,,Overcast,40,2013-09-04 06:53:00
3:13 AM,60.8,55.4,82,29.96,10.0,NNE,13.8,19.6,N/A,,Overcast,30,2013-09-04 07:13:00
3:39 AM,60.8,51.8,72,29.97,10.0,NNE,8.1,-,N/A,,Overcast,30,2013-09-04 07:39:00
3:53 AM,59.0,51.1,75,29.98,10.0,NE,13.8,21.9,N/A,,Overcast,40,2013-09-04 07:53:00
4:53 AM,57.0,46.0,67,30.01,10.0,NE,8.1,17.3,N/A,,Overcast,40,2013-09-04 08:53:00
5:05 AM,55.4,46.4,72,30.02,10.0,NE,9.2,-,N/A,,Overcast,50,2013-09-04 09:05:00
5:53 AM,54.0,46.0,75,30.04,10.0,NE,6.9,-,N/A,,Overcast,50,2013-09-04 09:53:00
6:50 AM,53.6,46.4,77,30.07,10.0,ENE,6.9,-,N/A,,Overcast,60,2013-09-04 10:50:00
6:53 AM,53.1,45.0,74,30.07,10.0,ENE,9.2,-,N/A,,Overcast,60,2013-09-04 10:53:00
7:23 AM,51.8,44.6,76,30.09,10.0,NE,4.6,-,N/A,,Overcast,50,2013-09-04 11:23:00
7:53 AM,52.0,41.0,66,30.11,10.0,NE,8.1,-,N/A,,Overcast,50,2013-09-04 11:53:00
8:53 AM,54.0,42.1,64,30.13,10.0,NE,6.9,-,N/A,,Mostly Cloudy,50,2013-09-04 12:53:00
9:53 AM,54.0,42.1,64,30.15,10.0,East,5.8,-,N/A,,Partly Cloudy,80,2013-09-04 13:53:00
10:53 AM,55.9,42.1,60,30.16,10.0,Variable,3.5,-,N/A,,Scattered Clouds,0,2013-09-04 14:53:00
11:53 AM,57.9,42.1,56,30.17,10.0,Calm,Calm,-,N/A,,Mostly Cloudy,0,2013-09-04 15:53:00
12:53 PM,59.0,45.0,60,30.16,10.0,NW,5.8,-,N/A,,Partly Cloudy,310,2013-09-04 16:53:00
1:53 PM,60.1,42.1,51,30.14,10.0,WNW,4.6,-,N/A,,Clear,300,2013-09-04 17:53:00
2:53 PM,61.0,42.1,50,30.15,10.0,NW,10.4,-,N/A,,Clear,310,2013-09-04 18:53:00
3:53 PM,61.0,42.1,50,30.15,10.0,WNW,10.4,-,N/A,,Clear,300,2013-09-04 19:53:00
4:53 PM,60.1,37.9,44,30.16,10.0,NW,6.9,-,N/A,,Clear,310,2013-09-04 20:53:00
5:53 PM,61.0,34.0,36,30.16,10.0,Calm,Calm,-,N/A,,Clear,0,2013-09-04 21:53:00
6:53 PM,59.0,37.9,46,30.16,10.0,NW,5.8,-,N/A,,Clear,320,2013-09-04 22:53:00
7:53 PM,57.0,42.1,57,30.17,10.0,NW,5.8,-,N/A,,Clear,320,2013-09-04 23:53:00
8:53 PM,50.0,43.0,77,30.18,10.0,NW,4.6,-,N/A,,Clear,320,2013-09-05 00:53:00
9:53 PM,46.9,41.0,80,30.19,10.0,NW,4.6,-,N/A,,Clear,320,2013-09-05 01:53:00
10:53 PM,48.0,42.1,80,30.20,10.0,WNW,5.8,-,N/A,,Clear,290,2013-09-05 02:53:00
11:53 PM,46.9,41.0,80,30.20,10.0,NW,3.5,-,N/A,,Clear,320,2013-09-05 03:53:00